Boerne Stage Field, TX

4:36 AM CST on December 13, 2019 (GMT -0600)
Boerne Stage Field

Weather History for K5C1 - October, 2019

Change the Weather History Date:

Friday, October 11, 2019

  Actual Average (WUND) Record (WUND)
Temperature  
Mean Temperature 60 °F -  
Max Temperature 77 °F - - (-1)
Min Temperature 44 °F - - (-1)
Degree Days  
Heating Degree Days 4    
Growing Degree Days 10 (Base 50)    
Moisture  
Dew Point 45 °F    
Average Humidity 71    
Maximum Humidity 100    
Minimum Humidity 41    
Precipitation  
Precipitation 0.07 in - - ()
Sea Level Pressure  
Sea Level Pressure 30.13 in    
Wind  
Wind Speed 13 mph (NNE)    
Max Wind Speed 25 mph    
Max Gust Speed 36 mph    
Visibility 10 miles    
Events      
Averages and records for this station are not official NWS values.
T = Trace of Precipitation, MM = Missing Value Source: NWS Daily Summary

Daily Weather History Graph

Daily Weather History Graph

Search for Another Location

Airport or City:

Astronomy

Oct. 11, 2019 Rise Set
Actual Time 7:33 AM CDT 7:08 PM CDT
Civil Twilight 7:09 AM CDT 7:32 PM CDT
Nautical Twilight 6:42 AM CDT 8:00 PM CDT
Astronomical Twilight 6:14 AM CDT 8:27 PM CDT
Moon 6:25 PM CDT (10/11) 5:31 AM CDT (10/11)
Length of Visible Light 12h 22m
Length of Day
11h 34m
Waxing Gibbous, 96% of the Moon is Illuminated
Oct 11
Waxing Gibbous
Oct 13
Full
Oct 21
Last Quarter
Oct 27
New
Nov 4
First Quarter

Hourly Weather History & Observations

Time (CDT) Temp. Windchill Dew Point Humidity Pressure Visibility Wind Dir Wind Speed Gust Speed Precip Events Conditions
12:15 AM 77.0 °F - 71.6 °F 83% 29.88 in 10.0 mi SSE 11.5 mph 17.3 mph N/A   Overcast
12:35 AM 77.0 °F - 71.6 °F 83% 29.88 in 10.0 mi SSE 12.7 mph 16.1 mph N/A   Overcast
1:15 AM 75.2 °F - 71.6 °F 89% 29.88 in 10.0 mi Calm Calm - N/A   Overcast
1:35 AM 75.2 °F - 71.6 °F 89% 29.89 in 10.0 mi South 10.4 mph - N/A   Overcast
1:55 AM 75.2 °F - 71.6 °F 89% 29.89 in 10.0 mi South 10.4 mph 18.4 mph N/A   Overcast
2:15 AM 75.2 °F - 71.6 °F 89% 29.90 in 10.0 mi South 12.7 mph 17.3 mph N/A   Overcast
2:35 AM 75.2 °F - 71.6 °F 89% 29.90 in 10.0 mi South 9.2 mph - N/A   Overcast
2:55 AM 75.2 °F - 71.6 °F 89% 29.91 in 10.0 mi South 8.1 mph 17.3 mph N/A   Overcast
3:15 AM 75.2 °F - 71.6 °F 89% 29.90 in 10.0 mi South 8.1 mph 16.1 mph N/A   Overcast
3:35 AM 73.4 °F - 71.6 °F 94% 29.90 in 10.0 mi South 10.4 mph 18.4 mph N/A   Mostly Cloudy
3:55 AM 73.4 °F - 71.6 °F 94% 29.89 in 10.0 mi South 6.9 mph 16.1 mph N/A   Mostly Cloudy
4:15 AM 73.4 °F - 71.6 °F 94% 29.92 in 10.0 mi Calm Calm - N/A   Overcast
4:35 AM 73.4 °F - 71.6 °F 94% 29.94 in 10.0 mi North 3.5 mph - N/A   Overcast
4:55 AM 62.6 °F - 60.8 °F 94% 29.98 in 7.0 mi North 10.4 mph 23.0 mph 0.02 in   Overcast
5:15 AM 60.8 °F - 60.8 °F 100% 30.01 in 10.0 mi North 8.1 mph - 0.03 in   Overcast
5:35 AM 59.0 °F - 59.0 °F 100% 30.01 in 10.0 mi North 11.5 mph 17.3 mph 0.04 in   Overcast
5:55 AM 57.2 °F - 57.2 °F 100% 30.02 in 10.0 mi North 13.8 mph 18.4 mph 0.05 in   Overcast
6:15 AM 55.4 °F - 55.4 °F 100% 30.04 in 10.0 mi North 11.5 mph 19.6 mph N/A   Overcast
6:35 AM 53.6 °F - 51.8 °F 94% 30.05 in 10.0 mi North 13.8 mph 25.3 mph N/A   Overcast
6:55 AM 53.6 °F - 50.0 °F 88% 30.06 in 10.0 mi North 16.1 mph 23.0 mph N/A   Overcast
7:15 AM 51.8 °F - 48.2 °F 88% 30.07 in 10.0 mi North 15.0 mph 25.3 mph N/A   Overcast
7:35 AM 51.8 °F - 46.4 °F 82% 30.08 in 10.0 mi North 15.0 mph 31.1 mph N/A   Overcast
7:55 AM 51.8 °F - 46.4 °F 82% 30.08 in 10.0 mi North 17.3 mph 28.8 mph N/A   Overcast
8:15 AM 50.0 °F - 44.6 °F 82% 30.10 in 10.0 mi North 16.1 mph 28.8 mph N/A   Overcast
8:35 AM 50.0 °F - 44.6 °F 82% 30.12 in 10.0 mi North 16.1 mph 28.8 mph N/A   Overcast
8:55 AM 50.0 °F - 44.6 °F 82% 30.13 in 10.0 mi North 18.4 mph 35.7 mph N/A   Overcast
9:15 AM 48.2 °F - 42.8 °F 82% 30.15 in 10.0 mi North 23.0 mph 34.5 mph N/A   Overcast
9:35 AM 46.4 °F 39.2 °F 42.8 °F 87% 30.18 in 10.0 mi North 18.4 mph 33.4 mph N/A   Overcast
9:55 AM 46.4 °F 38.5 °F 42.8 °F 87% 30.18 in 10.0 mi North 21.9 mph 31.1 mph N/A   Overcast
10:15 AM 46.4 °F 39.5 °F 42.8 °F 87% 30.20 in 10.0 mi North 17.3 mph 29.9 mph N/A   Overcast
10:35 AM 46.4 °F 38.5 °F 39.2 °F 76% 30.21 in 10.0 mi North 21.9 mph 32.2 mph N/A   Overcast
10:55 AM 44.6 °F 36.1 °F 41.0 °F 87% 30.20 in 10.0 mi North 21.9 mph 33.4 mph N/A   Overcast
11:15 AM 44.6 °F 37.2 °F 41.0 °F 87% 30.22 in 10.0 mi North 17.3 mph 32.2 mph N/A   Overcast
11:35 AM 44.6 °F 37.4 °F 39.2 °F 81% 30.21 in 10.0 mi North 16.1 mph 29.9 mph N/A   Overcast
11:55 AM 44.6 °F 37.2 °F 39.2 °F 81% 30.21 in 10.0 mi North 17.3 mph 32.2 mph N/A   Overcast
12:15 PM 46.4 °F 38.3 °F 37.4 °F 71% 30.22 in 10.0 mi North 23.0 mph 31.1 mph N/A   Overcast
12:35 PM 44.6 °F 35.5 °F 37.4 °F 76% 30.23 in 10.0 mi North 25.3 mph 33.4 mph N/A   Overcast
12:55 PM 44.6 °F 35.7 °F 37.4 °F 76% 30.23 in 10.0 mi North 24.2 mph 34.5 mph N/A   Overcast
1:15 PM 44.6 °F 36.1 °F 37.4 °F 76% 30.23 in 10.0 mi North 21.9 mph 32.2 mph N/A   Overcast
1:35 PM 44.6 °F 36.1 °F 37.4 °F 76% 30.23 in 10.0 mi North 21.9 mph 31.1 mph N/A   Overcast
1:55 PM 44.6 °F 37.4 °F 37.4 °F 76% 30.23 in 10.0 mi North 16.1 mph 25.3 mph N/A   Overcast
2:15 PM 46.4 °F 38.3 °F 35.6 °F 66% 30.22 in 10.0 mi North 23.0 mph 33.4 mph N/A   Overcast
2:35 PM 46.4 °F 38.5 °F 35.6 °F 66% 30.21 in 10.0 mi NNE 21.9 mph 31.1 mph N/A   Overcast
2:55 PM 46.4 °F 38.3 °F 35.6 °F 66% 30.20 in 10.0 mi North 23.0 mph 32.2 mph N/A   Overcast
3:15 PM 46.4 °F 39.5 °F 33.8 °F 62% 30.21 in 10.0 mi NNE 17.3 mph 31.1 mph N/A   Overcast
3:35 PM 46.4 °F 39.5 °F 33.8 °F 62% 30.21 in 10.0 mi NNE 17.3 mph 27.6 mph N/A   Overcast
3:55 PM 48.2 °F - 33.8 °F 58% 30.21 in 10.0 mi North 17.3 mph 28.8 mph N/A   Overcast
4:15 PM 48.2 °F - 33.8 °F 58% 30.21 in 10.0 mi North 20.7 mph 28.8 mph N/A   Overcast
4:35 PM 48.2 °F - 33.8 °F 58% 30.20 in 10.0 mi North 19.6 mph 27.6 mph N/A   Overcast
4:55 PM 50.0 °F - 33.8 °F 54% 30.20 in 10.0 mi North 20.7 mph 27.6 mph N/A   Overcast
5:15 PM 50.0 °F - 33.8 °F 54% 30.20 in 10.0 mi North 18.4 mph 28.8 mph N/A   Overcast
5:35 PM 50.0 °F - 33.8 °F 54% 30.20 in 10.0 mi North 16.1 mph 24.2 mph N/A   Overcast
5:55 PM 51.8 °F - 32.0 °F 47% 30.21 in 10.0 mi North 18.4 mph 25.3 mph N/A   Overcast
6:15 PM 50.0 °F - 32.0 °F 50% 30.22 in 10.0 mi North 10.4 mph 20.7 mph N/A   Overcast
6:35 PM 50.0 °F - 32.0 °F 50% 30.22 in 10.0 mi North 17.3 mph 24.2 mph N/A   Overcast
6:55 PM 50.0 °F - 32.0 °F 50% 30.22 in 10.0 mi North 13.8 mph 24.2 mph N/A   Overcast
7:15 PM 50.0 °F - 33.8 °F 54% 30.23 in 10.0 mi North 12.7 mph 23.0 mph N/A   Overcast
7:35 PM 51.8 °F - 33.8 °F 50% 30.23 in 10.0 mi North 8.1 mph 18.4 mph N/A   Overcast
7:55 PM 51.8 °F - 32.0 °F 47% 30.23 in 10.0 mi North 10.4 mph 19.6 mph N/A   Overcast
8:15 PM 51.8 °F - 32.0 °F 47% 30.23 in 10.0 mi North 11.5 mph 21.9 mph N/A   Overcast
8:35 PM 51.8 °F - 32.0 °F 47% 30.24 in 10.0 mi North 11.5 mph 17.3 mph N/A   Overcast
8:55 PM 51.8 °F - 32.0 °F 47% 30.24 in 10.0 mi North 16.1 mph 20.7 mph N/A   Overcast
9:15 PM 51.8 °F - 32.0 °F 47% 30.24 in 10.0 mi North 11.5 mph 17.3 mph N/A   Overcast
9:35 PM 53.6 °F - 32.0 °F 44% 30.25 in 10.0 mi NNE 13.8 mph 19.6 mph N/A   Overcast
9:55 PM 53.6 °F - 30.2 °F 41% 30.25 in 10.0 mi Calm Calm - N/A   Overcast
10:15 PM 53.6 °F - 30.2 °F 41% 30.26 in 10.0 mi NNE 12.7 mph 19.6 mph N/A   Overcast
10:35 PM 53.6 °F - 30.2 °F 41% 30.26 in 10.0 mi NNE 11.5 mph 17.3 mph N/A   Overcast
10:55 PM 53.6 °F - 30.2 °F 41% 30.27 in 10.0 mi Calm Calm - N/A   Overcast
11:15 PM 53.6 °F - 30.2 °F 41% 30.27 in 10.0 mi NNE 9.2 mph 17.3 mph N/A   Overcast
11:35 PM 53.6 °F - 30.2 °F 41% 30.27 in 10.0 mi NNE 9.2 mph - N/A   Overcast
11:55 PM 53.6 °F - 32.0 °F 44% 30.27 in 10.0 mi North 9.2 mph - N/A   Overcast